User: anonymous   Login
Location: Biharia
(46.4333°N, 22.8000°E)
Time: 08:42:45
(UTC+00:00)
Language:

SL-08 RB Rocket - Orbit

View from above orbital plane
View from above orbital plane
View from above satellite
View from above satellite

Ground track
Ground track

The orbit data is extracted from the following two-line orbital elements,

1 26387U 00033D   22024.93687677  .00000329  00000-0  64011-4 0  9995
2 26387  97.7558  49.4584 0026612  12.4018  48.6972 14.68848479412536
Epoch (UTC): 24 January 2022 22:29:06
Eccentricity: 0.0026612
inclination: 97.7558°
perigee height: 646 km
apogee height: 683 km
right ascension of ascending node: 49.4584°
argument of perigee: 12.4018°
revolutions per day: 14.68848479
mean anomaly at epoch: 48.6972°
orbit number at epoch: 41253

The dashed part of the orbit path shows where the satellite is in the earth's shadow,  

DLR